Waarnemingen

Advertentie
Mijn weer
Pamplona/Noain, Spanje (8085): temperatuur & dauwpunt: 09.08.2018 04:00:00 - 15.08.2018 04:00:00 (CEST)Pamplona/Noain, Spanje (8085): windsnelheid: 09.08.2018 04:00:00 - 15.08.2018 04:00:00 (CEST)Pamplona/Noain, Spanje (8085): windrichting: 09.08.2018 04:00:00 - 15.08.2018 04:00:00 (CEST)Pamplona/Noain, Spanje (8085): luchtdruk: 09.08.2018 04:00:00 - 15.08.2018 04:00:00 (CEST)Pamplona/Noain, Spanje (8085): zicht: 09.08.2018 04:00:00 - 15.08.2018 04:00:00 (CEST)
Datum & Tijd tt [°C] td [°C] ff [km/u] ff [kn] dd ppp [hPa] vv [km]
15.08.2018 04:00:00 16,6 12,3 9 5 NNW 1021,1 10
15.08.2018 03:00:00 17,0 12,9 16 9 NW 1021,2 9
15.08.2018 02:00:00 17,3 13,0 15 8 NW 1021,7 9
15.08.2018 01:00:00 17,4 13,1 24 13 NNW 1021,6 9
15.08.2018 00:00:00 17,5 13,0 15 8 NW 1021,7 10
14.08.2018 23:00:00 17,5 12,6 24 13 NNW 1021,7 10
14.08.2018 22:00:00 18,1 13,0 24 13 NNW 1021,3 10
14.08.2018 21:00:00 18,8 12,8 28 15 NNW 1020,8 10
14.08.2018 20:00:00 19,9 12,9 29 16 NNW 1020,2 10
14.08.2018 19:00:00 20,7 13,0 31 17 NNW 1020,2 10
14.08.2018 18:00:00 22,3 12,8 34 18 NNW 1020,0 10
14.08.2018 17:00:00 23,5 13,3 31 17 NNW 1019,9 10
14.08.2018 16:00:00 23,1 13,3 24 13 NNW 1020,3 10
14.08.2018 15:00:00 22,0 14,1 24 13 N 1020,6 27
14.08.2018 14:00:00 21,3 13,8 24 13 N 1020,8 10
14.08.2018 13:00:00 18,8 15,1 16 9 NW 1021,7 10
14.08.2018 12:00:00 19,5 13,8 16 9 WNW 1021,4 10
14.08.2018 11:00:00 19,0 14,2 15 8 NW 1021,2 30
14.08.2018 10:00:00 17,9 13,6 13 7 WNW 1021,0 10
14.08.2018 09:00:00 16,5 13,5 13 7 WNW 1021,0 10
14.08.2018 08:00:00 16,6 13,7 11 6 NW 1020,4 10
14.08.2018 07:00:00 16,2 13,6 2 1 - 1020,1 10
14.08.2018 06:00:00 15,8 14,0 4 2 WNW 1020,0 30
14.08.2018 05:00:00 16,6 13,7 13 7 WNW 1019,7 9
14.08.2018 04:00:00 16,8 13,3 9 5 WNW 1019,6 9
14.08.2018 03:00:00 17,1 14,0 22 12 NW 1019,6 8
14.08.2018 02:00:00 17,9 13,4 15 8 NNW 1019,5 30
14.08.2018 01:00:00 17,9 13,8 11 6 NNW 1019,5 30
14.08.2018 00:00:00 18,2 13,4 15 8 NNW 1019,1 10
13.08.2018 23:00:00 17,9 13,4 15 8 NNW 1018,8 10
13.08.2018 22:00:00 18,3 13,3 26 14 N 1018,2 10
13.08.2018 21:00:00 19,0 13,3 22 12 N 1017,1 30
13.08.2018 20:00:00 20,0 13,7 24 13 NNW 1016,4 10
13.08.2018 19:00:00 21,5 14,2 29 16 NNW 1015,8 10
13.08.2018 18:00:00 22,6 14,7 22 12 N 1015,2 10
13.08.2018 17:00:00 24,1 15,5 31 17 NNW 1014,8 10
13.08.2018 16:00:00 24,2 15,5 26 14 NNW 1014,4 10
13.08.2018 15:00:00 24,7 15,6 28 15 NNW 1014,3 10
13.08.2018 14:00:00 25,0 16,0 22 12 NNW 1014,3 10
13.08.2018 13:00:00 25,1 16,6 16 9 NNW 1014,5 10
13.08.2018 12:00:00 22,9 16,7 21 11 NNW 1014,9 10
13.08.2018 11:00:00 23,1 17,6 8 4 NNW 1014,6 10
13.08.2018 10:00:00 21,0 16,2 4 2 ONO 1014,8 30
13.08.2018 09:00:00 18,1 15,3 0 0 N 1015,1 10
13.08.2018 08:00:00 16,1 14,5 4 2 OZO 1015,4 25
13.08.2018 07:00:00 14,6 13,3 4 2 ZZO 1015,4 10
13.08.2018 06:00:00 15,1 13,6 0 0 N 1015,3 30
13.08.2018 05:00:00 15,1 13,8 5 3 ONO 1015,2 9
13.08.2018 04:00:00 15,8 14,3 4 2 ONO 1015,5 9
13.08.2018 03:00:00 16,7 14,7 2 1 - 1015,5 9
13.08.2018 02:00:00 17,2 15,4 4 2 NW 1015,9 30
13.08.2018 01:00:00 17,7 15,7 2 1 W 1015,5 9
13.08.2018 00:00:00 18,0 14,7 13 7 N 1016,0 10
12.08.2018 23:00:00 18,2 15,1 11 6 NNW 1015,9 10
12.08.2018 22:00:00 20,3 12,5 11 6 NW 1015,2 10
12.08.2018 21:00:00 21,4 14,1 22 12 NNW 1014,4 10
12.08.2018 20:00:00 22,6 17,5 24 13 NNW 1013,0 10
12.08.2018 19:00:00 26,0 16,7 15 8 NNO 1011,4 10
12.08.2018 18:00:00 32,2 18,4 15 8 Z 1008,9 10
12.08.2018 17:00:00 32,6 17,0 18 10 Z 1009,6 10
12.08.2018 16:00:00 34,4 15,1 8 4 ZW 1010,0 10
12.08.2018 15:00:00 34,5 14,9 11 6 ZZW 1011,0 10
12.08.2018 14:00:00 33,3 18,4 11 6 Z 1011,8 30
12.08.2018 13:00:00 31,9 18,9 11 6 ZZW 1013,1 10
12.08.2018 12:00:00 29,2 19,3 5 3 NO 1014,2 24
12.08.2018 11:00:00 27,7 19,3 4 2 NW 1014,9 10
12.08.2018 10:00:00 24,7 19,3 4 2 NNW 1015,7 10
12.08.2018 09:00:00 21,9 17,8 0 0 N 1016,3 10
12.08.2018 08:00:00 19,0 17,3 2 1 - 1016,8 10
12.08.2018 07:00:00 17,8 16,1 2 1 - 1016,9 10
12.08.2018 06:00:00 18,2 16,9 0 0 N 1016,8 10
12.08.2018 05:00:00 18,9 17,2 0 0 N 1016,7 9
12.08.2018 04:00:00 19,5 16,9 0 0 N 1017,0 10
12.08.2018 03:00:00 20,5 17,5 0 0 N 1017,4 10
12.08.2018 02:00:00 21,3 17,9 5 3 N 1017,6 10
12.08.2018 01:00:00 21,8 18,2 5 3 N 1018,0 10
12.08.2018 00:00:00 22,5 18,3 5 3 WNW 1017,8 10
11.08.2018 23:00:00 23,4 18,5 2 1 - 1017,6 10
11.08.2018 22:00:00 24,8 19,0 5 3 WNW 1017,0 10
11.08.2018 21:00:00 26,8 19,2 11 6 NW 1016,3 10
11.08.2018 20:00:00 29,5 19,1 16 9 NW 1015,4 10
11.08.2018 19:00:00 31,1 16,0 2 1 NNO 1015,4 10
11.08.2018 18:00:00 32,8 16,8 4 2 ZZO 1015,3 10
11.08.2018 17:00:00 32,6 17,2 5 3 W 1015,9 10
11.08.2018 16:00:00 31,5 17,7 8 4 OZO 1017,2 10
11.08.2018 15:00:00 28,4 17,3 8 4 O 1018,7 10
11.08.2018 14:00:00 28,9 18,2 5 3 OZO 1019,2 10
11.08.2018 13:00:00 27,0 17,0 8 4 O 1020,4 10
11.08.2018 12:00:00 25,1 15,6 4 2 NO 1021,4 10
11.08.2018 11:00:00 21,7 14,2 4 2 N 1022,6 10
11.08.2018 10:00:00 19,0 13,8 5 3 NNO 1023,3 10
11.08.2018 09:00:00 16,9 13,2 4 2 - 1023,8 10
11.08.2018 08:00:00 15,0 13,5 0 0 N 1024,3 10
11.08.2018 07:00:00 13,9 12,7 5 3 NW 1024,3 10
11.08.2018 06:00:00 13,9 12,6 0 0 N 1024,4 10
11.08.2018 05:00:00 14,4 12,8 4 2 NNW 1024,8 9
11.08.2018 04:00:00 15,0 13,2 4 2 NW 1025,1 8
11.08.2018 03:00:00 15,1 13,3 2 1 - 1025,2 10
11.08.2018 02:00:00 16,0 13,7 5 3 WNW 1025,5 9
11.08.2018 01:00:00 16,3 13,6 2 1 - 1025,5 9
11.08.2018 00:00:00 17,0 14,1 9 5 NW 1025,3 10
10.08.2018 23:00:00 17,6 14,1 8 4 NW 1025,1 10
10.08.2018 22:00:00 18,2 14,3 15 8 NW 1024,2 10
10.08.2018 21:00:00 19,5 14,5 22 12 NW 1023,0 10
10.08.2018 20:00:00 21,8 14,9 22 12 NW 1022,1 10
10.08.2018 19:00:00 24,4 15,3 26 14 NW 1021,0 10
10.08.2018 18:00:00 27,1 15,2 22 12 NW 1020,2 10
10.08.2018 17:00:00 28,9 13,4 9 5 NW 1019,9 10
10.08.2018 16:00:00 28,5 12,9 11 6 NNW 1020,5 10
10.08.2018 15:00:00 26,8 13,1 8 4 O 1021,2 10
10.08.2018 14:00:00 25,9 13,2 5 3 ONO 1021,9 10
10.08.2018 13:00:00 24,5 12,3 8 4 NW 1022,8 30
10.08.2018 12:00:00 22,7 12,1 5 3 NNW 1023,6 10
10.08.2018 11:00:00 20,9 11,5 4 2 NNW 1024,3 10
10.08.2018 10:00:00 19,2 11,9 5 3 - 1024,6 10
10.08.2018 09:00:00 17,3 12,7 13 7 NNW 1024,9 30
10.08.2018 08:00:00 14,4 11,9 8 4 NW 1025,3 30
10.08.2018 07:00:00 13,2 10,9 9 5 WNW 1025,1 10
10.08.2018 06:00:00 13,3 11,0 9 5 NW 1024,8 30
10.08.2018 05:00:00 13,7 11,2 9 5 NW 1024,4 30
10.08.2018 04:00:00 14,1 11,5 5 3 NNW 1024,7 10
10.08.2018 03:00:00 13,8 11,3 9 5 WNW 1024,9 9
10.08.2018 02:00:00 14,1 11,3 11 6 NW 1025,4 9
10.08.2018 01:00:00 14,1 11,3 9 5 NW 1025,2 9
10.08.2018 00:00:00 14,7 11,7 13 7 NW 1024,7 30
09.08.2018 23:00:00 15,1 11,7 13 7 NW 1024,2 10
09.08.2018 22:00:00 15,6 11,4 21 11 NNW 1023,5 30
09.08.2018 21:00:00 16,7 10,4 26 14 N 1022,6 10
09.08.2018 20:00:00 17,8 11,9 34 18 N 1022,0 10
09.08.2018 19:00:00 19,5 10,4 26 14 N 1021,0 10
09.08.2018 18:00:00 20,6 12,0 28 15 N 1020,4 10
09.08.2018 17:00:00 20,3 11,7 37 20 NNW 1020,3 10
09.08.2018 16:00:00 21,1 12,1 31 17 NNW 1019,6 10
09.08.2018 15:00:00 21,1 12,7 29 16 N 1019,6 10
09.08.2018 14:00:00 20,1 14,1 22 12 NNW 1019,9 10
09.08.2018 13:00:00 20,0 13,3 22 12 NW 1019,6 10
09.08.2018 12:00:00 18,3 12,4 16 9 NNW 1019,6 10
09.08.2018 11:00:00 17,1 12,3 16 9 NNW 1019,1 10
09.08.2018 10:00:00 16,5 12,8 21 11 NNW 1018,4 10
09.08.2018 09:00:00 15,8 12,2 13 7 NNW 1018,0 10
09.08.2018 08:00:00 15,3 12,3 9 5 NNW 1017,3 10
09.08.2018 07:00:00 15,0 12,7 16 9 N 1016,3 30
09.08.2018 06:00:00 15,0 12,9 18 10 NNW 1015,7 10
09.08.2018 05:00:00 15,6 13,2 28 15 NW 1014,5 9
09.08.2018 04:00:00 18,6 17,8 2 1 - 1012,3 8

tt = temperatuur
td = dauwpunt
ff = windsnelheid
dd = windrichting
ppp = luchtdruk
vv = zicht

Weerstations in de omgeving